Flag for South Korea Weather past 2 weeks in Cheongju, South Korea

Now
59 °F

Rain. Fog.


Feels Like: 57 °F
Forecast: 48 / 62 °F
Wind: 10 mph from Northwest

Location: Chongju Ab

Current Time: Oct 21, 2014 at 3:00:27 PM

Latest Report: Oct 21, 2014 at 2:00 PM


Visibility: 2 mi

Pressure: 29.95 "Hg

Humidity: 88%

Dew point: 55 °F

Location of CheongjuLocation

Historic Weather in Cheongju — Graph

°F

Cheongju temperature yesterday

Maximum temperature yesterday: 63 °F (at 4:00 PM)
Minimum temperature yesterday: 55 °F (at 1:00 AM)
Average temperature yesterday: 59 °F

Past Weeks' High & Low Weather Summary

 TemperatureHumidityPressure
High81 °F (Oct 10, 2:00 PM)100% (Oct 8, 4:00 AM)30.30 "Hg (Oct 8, 4:00 AM)
Low32 °F (Oct 17, 7:00 AM)22% (Oct 17, 2:00 PM)29.80 "Hg (Oct 13, 10:00 AM)
Average57 °F69%30.11 "Hg
* Reported Oct 6 1:00 PM — Oct 21 1:00 PM, Cheongju, Weather by CustomWeather, © 2014

Note: Actual official high and low records may vary slightly from our data, if they occured in-between our weather recording intervals... More about our weather records

Advertising

Cheongju weather history for previous 24 hours

 ConditionsComfort  
Time TempWeatherWind HumidityBarometerVisibility
1:00 PM
Oct 21
59 °FRain. Fog.7 mph88%29.98 "Hg2 mi
12:00 PM59 °FLight rain. Fog.12 mph88%29.98 "Hg2 mi
11:00 AM59 °FLight rain. Fog.12 mph88%29.98 "Hg2 mi
10:03 AM59 °FLight rain. Mostly cloudy.12 mph94%29.98 "Hg4 mi
9:00 AM59 °FRain. Fog.7 mph94%29.98 "Hg2 mi
8:00 AM59 °FLight rain. Fog.5 mph94%29.98 "Hg2 mi
7:00 AM59 °FLight rain. Fog.3 mph94%29.95 "Hg2 mi
6:00 AM59 °FRain. Fog.3 mph94%29.95 "Hg2 mi
5:00 AM59 °FRain. Fog.1 mph94%29.98 "Hg2 mi
4:00 AM59 °FRain. Fog.2 mph94%29.99 "Hg2 mi
3:00 AM59 °FRain. Fog.2 mph94%30.00 "Hg2 mi
2:00 AM59 °FLight rain. Fog.1 mph94%29.98 "Hg2 mi
1:00 AM61 °FLight rain. Fog.3 mph94%29.98 "Hg1 mi
12:00 AM61 °FDrizzle. Fog.1 mph94%30.01 "Hg1 mi
11:00 PM
Oct 20
61 °FDrizzle. Fog.1 mph94%30.01 "Hg1 mi
10:00 PM63 °FDrizzle. Fog.1 mph94%30.01 "Hg1 mi
9:00 PM63 °FDrizzle. Fog.1 mph94%30.01 "Hg1 mi
8:00 PM63 °FDrizzle. Fog.1 mph94%30.01 "Hg2 mi
7:00 PM63 °FDrizzle. Fog.1 mph94%30.01 "Hg2 mi
6:00 PM63 °FDrizzle. Fog.1 mph94%29.98 "Hg2 mi
5:00 PM63 °FDrizzle. Fog.1 mph94%29.98 "Hg1 mi
4:00 PM63 °FDrizzle. Fog.1 mph94%29.98 "Hg1 mi
3:00 PM61 °FLight rain. Fog.1 mph94%29.98 "Hg1 mi
Weather by CustomWeather, © 2014

See weather overviewHow to use our weather pages